SAS355 ENGM-ESGG

Flight info

Callsign SAS355
Flight time 0h 49m
Altitude 23000
Route OKSAT L996 KELIN
Aircraft A320/M-SDE3FGHIRWY/LB1

Departure

Time 2026-05-06 14:47
Airport Oslo-Gardermoen International Airport (ENGM)

Arrival

Time 2026-05-06 15:36
Airport Göteborg Landvetter Airport (ESGG)
Time Latitude Longitude Altitude Speed Heading
2026-05-06 14:19 60.19386 11.10833 683 ft 0 kts 195°
2026-05-06 14:38 60.19395 11.10839 678 ft 4 kts 194°
2026-05-06 14:38 60.19421 11.10851 681 ft 4 kts 189°
2026-05-06 14:39 60.19448 11.10856 678 ft 4 kts 176°
2026-05-06 14:39 60.19472 11.10843 679 ft 4 kts 132°
2026-05-06 14:39 60.19478 11.10823 680 ft 1 kts 106°
2026-05-06 14:39 60.19479 11.10820 681 ft 0 kts 106°
2026-05-06 14:42 60.19473 11.10860 679 ft 6 kts 106°
2026-05-06 14:42 60.19454 11.10989 683 ft 13 kts 107°
2026-05-06 14:43 60.19424 11.11197 684 ft 14 kts 106°
2026-05-06 14:43 60.19465 11.11309 684 ft 14 kts 17°
2026-05-06 14:43 60.19538 11.11350 685 ft 19 kts 16°
2026-05-06 14:43 60.19684 11.11435 681 ft 25 kts 16°
2026-05-06 14:44 60.19839 11.11524 686 ft 25 kts 16°
2026-05-06 14:44 60.20020 11.11628 689 ft 24 kts 16°
2026-05-06 14:44 60.20174 11.11794 688 ft 17 kts 85°
2026-05-06 14:45 60.20140 11.12043 683 ft 0 kts 107°
2026-05-06 14:45 60.20135 11.12076 688 ft 5 kts 107°
2026-05-06 14:45 60.20099 11.12175 689 ft 13 kts 148°
2026-05-06 14:46 60.20030 11.12198 688 ft 0 kts 197°
2026-05-06 14:46 60.20018 11.12190 687 ft 9 kts 197°
2026-05-06 14:46 60.19714 11.12014 687 ft 83 kts 196°
2026-05-06 14:46 60.18949 11.11573 689 ft 142 kts 195°
2026-05-06 14:47 60.17968 11.11021 1184 ft 148 kts 196°
2026-05-06 14:47 60.16945 11.10462 1828 ft 157 kts 197°
2026-05-06 14:47 60.15855 11.09870 2340 ft 172 kts 198°
2026-05-06 14:47 60.14620 11.09168 2744 ft 197 kts 194°
2026-05-06 14:48 60.13178 11.09366 3155 ft 225 kts 161°
2026-05-06 14:48 60.11868 11.11318 3719 ft 247 kts 134°
2026-05-06 14:48 60.10693 11.13876 4831 ft 248 kts 134°
2026-05-06 14:48 60.09506 11.16416 5909 ft 251 kts 134°
2026-05-06 14:49 60.08296 11.18988 6677 ft 257 kts 135°
2026-05-06 14:49 60.07065 11.21600 6927 ft 258 kts 135°
2026-05-06 14:49 60.05867 11.24218 7147 ft 260 kts 129°
2026-05-06 14:49 60.04826 11.27174 8170 ft 261 kts 127°
2026-05-06 14:50 60.03772 11.30148 9213 ft 263 kts 126°
2026-05-06 14:50 60.02915 11.33410 10158 ft 268 kts 109°
2026-05-06 14:50 60.02605 11.37144 10928 ft 279 kts 90°
2026-05-06 14:50 60.02954 11.41003 11667 ft 288 kts 69°
2026-05-06 14:51 60.03955 11.44488 12440 ft 293 kts 47°
2026-05-06 14:51 60.05385 11.47434 13223 ft 298 kts 44°
2026-05-06 14:51 60.06681 11.50759 13985 ft 307 kts 56°
2026-05-06 14:51 60.07651 11.54617 14679 ft 315 kts 68°
2026-05-06 14:52 60.08251 11.58876 15379 ft 320 kts 81°
2026-05-06 14:52 60.08425 11.63346 16079 ft 324 kts 94°
2026-05-06 14:52 60.08152 11.67845 16779 ft 327 kts 107°
2026-05-06 14:52 60.07495 11.72219 17470 ft 330 kts 112°
2026-05-06 14:53 60.06776 11.76629 18144 ft 335 kts 112°
2026-05-06 14:53 60.06047 11.81101 18756 ft 340 kts 113°
2026-05-06 14:53 60.05305 11.85638 19389 ft 344 kts 114°
2026-05-06 14:53 60.04369 11.89945 20014 ft 341 kts 127°
2026-05-06 14:54 60.03037 11.93821 20640 ft 335 kts 139°
2026-05-06 14:54 60.01387 11.97041 21266 ft 328 kts 152°
2026-05-06 14:54 59.99508 11.99519 21863 ft 320 kts 163°
2026-05-06 14:54 59.97497 12.01246 22484 ft 311 kts 173°
2026-05-06 14:55 59.95416 12.02246 22854 ft 304 kts 182°
2026-05-06 14:55 59.93346 12.02503 22925 ft 293 kts 192°
2026-05-06 14:55 59.91324 12.02251 22913 ft 291 kts 194°
2026-05-06 14:55 59.89308 12.02005 22919 ft 291 kts 193°
2026-05-06 14:56 59.87281 12.01775 22930 ft 292 kts 193°
2026-05-06 14:56 59.85250 12.01550 22934 ft 292 kts 193°
2026-05-06 14:56 59.83220 12.01328 22934 ft 292 kts 193°
2026-05-06 14:56 59.81194 12.01100 22933 ft 292 kts 193°
2026-05-06 14:57 59.79166 12.00872 22933 ft 291 kts 193°
2026-05-06 14:57 59.77146 12.00646 22935 ft 291 kts 193°
2026-05-06 14:57 59.75119 12.00416 22937 ft 292 kts 193°
2026-05-06 14:57 59.73088 12.00186 22943 ft 292 kts 193°
2026-05-06 14:58 59.71083 11.99961 22947 ft 292 kts 193°
2026-05-06 14:58 59.69045 11.99734 22950 ft 293 kts 193°
2026-05-06 14:58 59.67009 11.99511 22953 ft 293 kts 193°
2026-05-06 14:58 59.64971 11.99287 22955 ft 293 kts 193°
2026-05-06 14:59 59.62930 11.99058 22956 ft 293 kts 193°
2026-05-06 14:59 59.60895 11.98829 22929 ft 293 kts 192°
2026-05-06 14:59 59.58857 11.98598 22944 ft 293 kts 193°
2026-05-06 14:59 59.56820 11.98366 22944 ft 293 kts 192°
2026-05-06 15:00 59.54780 11.98137 22944 ft 294 kts 193°
2026-05-06 15:00 59.52738 11.97908 22949 ft 294 kts 193°
2026-05-06 15:00 59.50702 11.97680 22961 ft 293 kts 193°
2026-05-06 15:00 59.48658 11.97451 22959 ft 294 kts 193°
2026-05-06 15:01 59.46619 11.97222 22962 ft 294 kts 192°
2026-05-06 15:01 59.44578 11.96995 22963 ft 294 kts 192°
2026-05-06 15:01 59.42564 11.96769 22963 ft 294 kts 192°
2026-05-06 15:01 59.40500 11.96537 22963 ft 294 kts 192°
2026-05-06 15:02 59.38493 11.96319 22938 ft 292 kts 192°
2026-05-06 15:02 59.36460 11.96102 22946 ft 292 kts 192°
2026-05-06 15:02 59.34430 11.95887 22948 ft 292 kts 192°
2026-05-06 15:02 59.32400 11.95666 22919 ft 292 kts 192°
2026-05-06 15:03 59.30364 11.95443 22941 ft 293 kts 192°
2026-05-06 15:03 59.28327 11.95217 22941 ft 293 kts 192°
2026-05-06 15:03 59.26288 11.94988 22944 ft 293 kts 192°
2026-05-06 15:03 59.24251 11.94765 22946 ft 293 kts 192°
2026-05-06 15:04 59.22215 11.94546 22943 ft 293 kts 192°
2026-05-06 15:04 59.20181 11.94330 22945 ft 293 kts 192°
2026-05-06 15:04 59.18142 11.94114 22946 ft 293 kts 192°
2026-05-06 15:04 59.16105 11.93899 22944 ft 293 kts 192°
2026-05-06 15:05 59.14070 11.93684 22944 ft 293 kts 192°
2026-05-06 15:05 59.12034 11.93467 22946 ft 293 kts 192°
2026-05-06 15:05 59.10000 11.93245 22944 ft 293 kts 192°
2026-05-06 15:05 59.07989 11.93026 22944 ft 293 kts 192°
2026-05-06 15:06 59.05954 11.92807 22946 ft 293 kts 192°
2026-05-06 15:06 59.03917 11.92589 22927 ft 294 kts 191°
2026-05-06 15:06 59.01863 11.92367 22946 ft 296 kts 191°
2026-05-06 15:06 58.99804 11.92142 22947 ft 296 kts 191°
2026-05-06 15:07 58.97741 11.91921 22947 ft 296 kts 191°
2026-05-06 15:07 58.95681 11.91702 22950 ft 297 kts 191°
2026-05-06 15:07 58.93617 11.91480 22947 ft 297 kts 191°
2026-05-06 15:07 58.91556 11.91260 22947 ft 297 kts 191°
2026-05-06 15:08 58.89494 11.91041 22950 ft 297 kts 191°
2026-05-06 15:08 58.87434 11.90820 22948 ft 297 kts 191°
2026-05-06 15:08 58.85369 11.90597 22947 ft 296 kts 191°
2026-05-06 15:08 58.83342 11.90382 22878 ft 287 kts 191°
2026-05-06 15:09 58.81360 11.90284 22627 ft 285 kts 186°
2026-05-06 15:09 58.79384 11.90595 22309 ft 288 kts 180°
2026-05-06 15:09 58.77400 11.91147 21988 ft 287 kts 180°
2026-05-06 15:09 58.75425 11.91693 21618 ft 287 kts 180°
2026-05-06 15:10 58.73479 11.92227 21277 ft 286 kts 180°
2026-05-06 15:10 58.71509 11.92766 20942 ft 286 kts 179°
2026-05-06 15:10 58.69545 11.93300 20621 ft 285 kts 179°
2026-05-06 15:10 58.67584 11.93829 20307 ft 284 kts 179°
2026-05-06 15:11 58.65628 11.94356 19984 ft 283 kts 179°
2026-05-06 15:11 58.63681 11.94883 19679 ft 283 kts 179°
2026-05-06 15:11 58.61732 11.95408 19365 ft 282 kts 179°
2026-05-06 15:11 58.59786 11.95934 19064 ft 282 kts 179°
2026-05-06 15:12 58.57842 11.96458 18770 ft 281 kts 179°
2026-05-06 15:12 58.55908 11.96979 18483 ft 281 kts 179°
2026-05-06 15:12 58.53977 11.97497 18183 ft 280 kts 179°
2026-05-06 15:12 58.52047 11.98016 17858 ft 279 kts 179°
2026-05-06 15:13 58.50126 11.98533 17554 ft 278 kts 178°
2026-05-06 15:13 58.48216 11.99045 17230 ft 277 kts 178°
2026-05-06 15:13 58.46330 11.99548 16852 ft 278 kts 177°
2026-05-06 15:13 58.44407 12.00062 16472 ft 279 kts 177°
2026-05-06 15:14 58.42478 12.00582 16113 ft 280 kts 176°
2026-05-06 15:14 58.40545 12.01101 15748 ft 281 kts 176°
2026-05-06 15:14 58.38605 12.01618 15365 ft 282 kts 176°
2026-05-06 15:14 58.36661 12.02134 15022 ft 283 kts 176°
2026-05-06 15:15 58.34708 12.02650 14673 ft 283 kts 176°
2026-05-06 15:15 58.32754 12.03169 14319 ft 284 kts 175°
2026-05-06 15:15 58.30791 12.03695 13982 ft 284 kts 175°
2026-05-06 15:15 58.28837 12.04222 13629 ft 284 kts 175°
2026-05-06 15:16 58.26871 12.04751 13235 ft 285 kts 175°
2026-05-06 15:16 58.24929 12.05483 12855 ft 286 kts 166°
2026-05-06 15:16 58.23061 12.06858 12488 ft 289 kts 156°
2026-05-06 15:16 58.21305 12.08728 12107 ft 290 kts 152°
2026-05-06 15:17 58.19558 12.10628 11740 ft 290 kts 153°
2026-05-06 15:17 58.17809 12.12518 11342 ft 291 kts 153°
2026-05-06 15:17 58.16044 12.14424 10931 ft 292 kts 153°
2026-05-06 15:17 58.14277 12.16332 10532 ft 293 kts 153°
2026-05-06 15:18 58.12504 12.18246 10134 ft 293 kts 152°
2026-05-06 15:18 58.10732 12.20156 9737 ft 294 kts 152°
2026-05-06 15:18 58.08955 12.22067 9300 ft 293 kts 153°
2026-05-06 15:18 58.07179 12.23978 8853 ft 293 kts 152°
2026-05-06 15:19 58.05412 12.25876 8440 ft 292 kts 152°
2026-05-06 15:19 58.03670 12.27742 8019 ft 291 kts 152°
2026-05-06 15:19 58.01906 12.29629 7603 ft 290 kts 152°
2026-05-06 15:19 58.00154 12.31503 7219 ft 288 kts 151°
2026-05-06 15:20 57.98433 12.33271 7088 ft 277 kts 156°
2026-05-06 15:20 57.96663 12.34529 6956 ft 266 kts 160°
2026-05-06 15:20 57.94962 12.35701 6915 ft 254 kts 160°
2026-05-06 15:20 57.93335 12.36822 6801 ft 246 kts 160°
2026-05-06 15:21 57.91753 12.37916 6657 ft 237 kts 160°
2026-05-06 15:21 57.90230 12.38970 6542 ft 229 kts 160°
2026-05-06 15:21 57.88767 12.39980 6414 ft 220 kts 160°
2026-05-06 15:21 57.87345 12.40876 6287 ft 211 kts 166°
2026-05-06 15:22 57.85928 12.41246 6157 ft 201 kts 177°
2026-05-06 15:22 57.84556 12.41375 6023 ft 193 kts 176°
2026-05-06 15:22 57.83237 12.41505 5820 ft 188 kts 176°
2026-05-06 15:22 57.81953 12.41628 5664 ft 180 kts 176°
2026-05-06 15:23 57.80716 12.41727 5420 ft 178 kts 180°
2026-05-06 15:23 57.79483 12.41304 5037 ft 183 kts 199°
2026-05-06 15:23 57.78367 12.40150 4607 ft 183 kts 214°
2026-05-06 15:23 57.77357 12.38732 4167 ft 180 kts 215°
2026-05-06 15:24 57.76345 12.37372 3718 ft 178 kts 214°
2026-05-06 15:24 57.75302 12.36142 3247 ft 177 kts 209°
2026-05-06 15:24 57.74196 12.35101 2704 ft 179 kts 207°
2026-05-06 15:24 57.73095 12.34156 2435 ft 164 kts 209°
2026-05-06 15:25 57.72119 12.33294 2182 ft 149 kts 210°
2026-05-06 15:25 57.71200 12.32462 2022 ft 145 kts 209°
2026-05-06 15:25 57.70291 12.31635 2022 ft 148 kts 211°
2026-05-06 15:25 57.69369 12.30774 2104 ft 148 kts 218°
2026-05-06 15:26 57.68806 12.29308 2218 ft 140 kts 267°
2026-05-06 15:26 57.68952 12.27553 2481 ft 138 kts 290°
2026-05-06 15:26 57.69311 12.25871 2737 ft 139 kts 294°
2026-05-06 15:26 57.69698 12.24249 2583 ft 136 kts 295°
2026-05-06 15:27 57.70094 12.22642 2303 ft 132 kts 297°
2026-05-06 15:27 57.70463 12.21136 2114 ft 128 kts 296°
2026-05-06 15:27 57.70850 12.19508 2078 ft 142 kts 295°
2026-05-06 15:27 57.71264 12.17799 2354 ft 146 kts 298°
2026-05-06 15:28 57.71991 12.16517 2555 ft 150 kts 343°
2026-05-06 15:28 57.73048 12.16608 2848 ft 158 kts 17°
2026-05-06 15:28 57.74100 12.17357 3012 ft 166 kts 24°
2026-05-06 15:28 57.75142 12.18226 2923 ft 163 kts 25°
2026-05-06 15:29 57.76164 12.19114 2818 ft 160 kts 25°
2026-05-06 15:29 57.77154 12.19997 2745 ft 159 kts 25°
2026-05-06 15:29 57.78139 12.20904 2666 ft 157 kts 25°
2026-05-06 15:29 57.79109 12.21826 2564 ft 155 kts 25°
2026-05-06 15:30 57.80057 12.22745 2552 ft 153 kts 25°
2026-05-06 15:30 57.80996 12.23680 2572 ft 153 kts 25°
2026-05-06 15:30 57.81936 12.24639 2589 ft 153 kts 26°
2026-05-06 15:30 57.82875 12.25598 2634 ft 154 kts 27°
2026-05-06 15:31 57.83566 12.27093 2634 ft 158 kts 73°
2026-05-06 15:31 57.83495 12.29149 2690 ft 163 kts 107°
2026-05-06 15:31 57.83062 12.31123 2705 ft 164 kts 114°
2026-05-06 15:32 57.82053 12.34960 2543 ft 164 kts 116°
2026-05-06 15:32 57.81495 12.37055 2498 ft 204 kts 116°
2026-05-06 15:32 57.80645 12.39321 2403 ft 214 kts 141°
2026-05-06 15:32 57.79344 12.40355 2354 ft 204 kts 170°
2026-05-06 15:33 57.77996 12.40704 2255 ft 188 kts 175°
2026-05-06 15:33 57.76769 12.40507 2138 ft 168 kts 212°
2026-05-06 15:33 57.76159 12.38913 2084 ft 147 kts 257°
2026-05-06 15:33 57.75772 12.37200 2016 ft 142 kts 236°
2026-05-06 15:34 57.75034 12.35976 2033 ft 144 kts 213°
2026-05-06 15:34 57.74438 12.35422 2029 ft 144 kts 209°
2026-05-06 15:34 57.73540 12.34604 2016 ft 143 kts 211°
2026-05-06 15:34 57.72637 12.33779 2015 ft 144 kts 210°
2026-05-06 15:35 57.71733 12.32954 1943 ft 146 kts 211°
2026-05-06 15:35 57.70827 12.32119 1743 ft 144 kts 210°
2026-05-06 15:35 57.69940 12.31293 1388 ft 141 kts 210°
2026-05-06 15:35 57.69062 12.30489 1005 ft 140 kts 208°
2026-05-06 15:36 57.68176 12.29751 696 ft 139 kts 211°
2026-05-06 15:36 57.67323 12.28948 528 ft 136 kts 211°
2026-05-06 15:36 57.66605 12.28272 512 ft 70 kts 205°
2026-05-06 15:36 57.66329 12.28020 511 ft 30 kts 206°
2026-05-06 15:37 57.66189 12.27911 509 ft 16 kts 168°
2026-05-06 15:37 57.66122 12.28021 509 ft 11 kts 114°
2026-05-06 15:37 57.66112 12.28062 509 ft 0 kts 113°
2026-05-06 15:39 57.66112 12.28064 509 ft 2 kts 113°
2026-05-06 15:39 57.66107 12.28144 509 ft 9 kts 73°
2026-05-06 15:39 57.66144 12.28199 510 ft 0 kts 24°
2026-05-06 15:42 57.66146 12.28201 510 ft 0 kts 26°
2026-05-06 15:43 57.66149 12.28203 510 ft 3 kts 26°
2026-05-06 15:43 57.66198 12.28248 510 ft 13 kts 26°
2026-05-06 15:44 57.66307 12.28347 512 ft 21 kts 26°
2026-05-06 15:44 57.66459 12.28486 512 ft 27 kts 26°
2026-05-06 15:44 57.66628 12.28639 512 ft 22 kts 26°
2026-05-06 15:44 57.66723 12.28725 513 ft 17 kts 26°
2026-05-06 15:45 57.66804 12.28800 513 ft 0 kts 26°
2026-05-06 15:45 57.66808 12.28803 513 ft 3 kts 26°
2026-05-06 15:45 57.66832 12.28856 513 ft 8 kts 85°
2026-05-06 15:45 57.66818 12.28933 516 ft 0 kts 115°
2026-05-06 15:47 57.66810 12.28965 516 ft 6 kts 116°
2026-05-06 15:47 57.66781 12.29077 516 ft 12 kts 115°
2026-05-06 15:47 57.66775 12.29167 516 ft 3 kts 45°
2026-05-06 15:48 57.66788 12.29177 516 ft 4 kts 24°
2026-05-06 15:48 57.66809 12.29227 516 ft 4 kts 97°
2026-05-06 15:48 57.66786 12.29284 516 ft 5 kts 119°
2026-05-06 15:48 57.66776 12.29320 516 ft 0 kts 116°